Tracking 31027 objects as of 19-Jul-2025
HD Live streaming from Space Station
objects crossing your sky now

STARLINK-30789

Track STARLINK-30789 now!
10-day predictions
STARLINK-30789 is classified as:


NORAD ID: 58166
Int'l Code: 2023-166S
Perigee: 481.6 km
Apogee: 483.2 km
Inclination: 53.2 °
Period: 94.1 minutes
Semi major axis: 6853 km
RCS: Unknown
Launch date: October 29, 2023
Source: United States (US)
Launch site: AIR FORCE WESTERN TEST RANGE (AFWTR)
Your satellite tracking list
HAWK-4A
Track 1 satellite(s)




NASA's NSSDC Master Catalog

Two Line Element Set (TLE):
1 58166U 23166S   25199.36917894  .00000113  00000-0  15947-4 0  9992
2 58166  53.1589 228.0248 0001120  93.2839 266.8290 15.30187174 97302
Source of the keplerian elements: AFSPC